[[{"header":{"parameterUnit":"m.s-1","parameterCategory":1,"la1":30.2991,"la2":30.254,"lo1":-89.0895,"lo2":-89.0444,"dy":0.0017,"dx":0.0017,"nx":28,"ny":28,"refTime":"2024-06-14T03:00:00:Z","depth":0,"parameterNumber":2,"parameterNumberName":"U-component_of_WINDS"},"data":[0,0,0,0,0,0,0,0,0,0,0,0,0,0,0,0,0,0,0,0,0,0,0,0,0,0,0,0,0,0,0,0,0,0,0,0,0,0,0,0,0,0,0,0,0,0,0,0,0,0,0,0,0,0,0,0,0,0,-2.277,-2.2771,0,-2.2814,-2.2815,-2.2815,-2.2785,-2.2784,-2.2783,-2.2781,-2.2826,-2.2829,-2.2831,0,0,0,0,0,0,0,0,0,0,0,0,0,-2.2661,-2.2663,-2.277,-2.2771,-2.2771,-2.2814,-2.2815,-2.2815,-2.2785,-2.2784,-2.2782,-2.2781,-2.2825,-2.2828,-2.2831,0,0,0,0,0,0,0,0,0,0,0,0,0,-2.2707,-2.2664,-2.277,-2.2762,-2.2761,-2.2814,-2.2815,-2.2815,-2.2786,-2.2784,-2.2782,-2.278,-2.2824,-2.2828,-2.2832,-2.2895,0,0,-2.2843,-2.2845,0,0,0,0,0,0,0,0,-2.2704,-2.2711,-2.2762,-2.2762,-2.2762,-2.2792,-2.2793,-2.2842,-2.2786,-2.2777,-2.2781,-2.2779,-2.2817,-2.2821,-2.2833,-2.2897,-2.2899,-2.2843,-2.2846,-2.2847,-2.2848,0,0,0,0,0,0,0,-2.2701,-2.2709,-2.2788,-2.2763,-2.2763,-2.2756,-2.276,-2.2802,-2.2807,-2.2777,-2.2775,-2.2781,-2.2816,-2.283,-2.2834,-2.29,-2.2843,-2.2846,-2.2849,-2.285,-2.3018,-2.302,0,0,0,0,0,0,-2.2699,-2.2706,-2.2786,-2.2789,-2.2728,-2.2759,-2.2764,-2.2785,-2.2807,-2.2808,-2.2782,-2.2779,-2.2825,-2.283,-2.2836,-2.2912,-2.2847,-2.2851,-2.2853,-2.3016,-2.3019,-2.3021,0,0,0,0,0,0,-2.2697,-2.2706,-2.2784,-2.2747,-2.2757,-2.2763,-2.2787,-2.2787,-2.28,-2.2811,-2.2812,-2.2796,-2.2823,-2.2831,-2.2881,-2.2913,-2.2852,-2.2856,-2.3013,-2.3017,-2.302,-2.3064,0,0,0,0,0,0,-2.2693,-2.2706,-2.273,-2.2748,-2.2759,-2.2829,-2.2789,-2.2789,-2.2807,-2.2803,-2.2823,-2.2825,-2.2822,-2.2875,-2.2884,-2.2917,-2.2858,-2.301,-2.3015,-2.3019,-2.3059,-2.3068,-2.3076,0,0,0,0,0,-2.269,-2.274,-2.2731,-2.2741,-2.2789,-2.2831,-2.2837,-2.2833,-2.281,-2.2834,-2.2841,-2.2824,-2.2908,-2.2881,-2.2891,-2.2925,-2.3008,-2.3014,-2.3018,-2.3056,-2.3066,-2.3075,0,0,0,0,0,0,-2.2726,-2.2743,-2.2732,-2.279,-2.2809,-2.2826,-2.2856,-2.2844,-2.287,-2.2865,-2.2859,-2.2864,-2.2917,-2.2926,-2.2895,-2.2987,-2.2954,-2.2962,-2.2979,-2.299,-2.2998,-2.2994,-2.2862,0,0,0,0,0,-2.274,-2.2773,-2.2786,-2.2836,-2.2846,-2.2849,-2.2867,-2.2863,-2.2882,-2.289,-2.29,-2.292,-2.295,-2.297,-2.2999,-2.3061,-2.3065,-2.3089,-2.3097,-2.3104,-2.311,-2.3143,-2.3154,-2.3038,-2.3038,-2.3038,0,0,-2.2771,-2.2784,-2.2805,-2.2843,-2.2857,-2.2891,-2.2856,-2.2893,-2.2918,-2.2895,-2.2943,-2.2952,-2.2973,-2.3029,-2.3054,-2.3038,-2.3143,-2.311,-2.3115,-2.3118,-2.315,-2.3161,-2.317,-2.3041,-2.304,-2.304,0,0,-2.2844,-2.2857,-2.29,-2.2915,-2.2937,-2.2939,-2.295,-2.2968,-2.2972,-2.302,-2.3004,-2.3033,-2.3086,-2.3102,-2.3117,-2.3196,-2.3182,-2.3206,-2.3248,-2.3281,-2.329,-2.3298,-2.3326,-2.3337,-2.3212,-2.3212,-2.3213,0,-2.2879,-2.2929,-2.2924,-2.2962,-2.298,-2.2961,-2.3004,-2.3019,-2.3049,-2.3061,-2.3043,-2.3109,-2.3122,-2.3181,-2.3201,-2.3214,-2.3225,-2.3204,-2.3289,-2.3297,-2.3305,-2.3332,-2.3342,-2.3215,-2.3215,-2.3215,-2.3214,0,-2.2972,-2.3007,-2.3039,-2.3068,-2.3089,-2.313,-2.3131,-2.3153,-2.3147,-2.3151,-2.32,-2.3215,-2.3246,-2.326,-2.3254,-2.3319,-2.3308,-2.329,-2.3257,-2.3319,-2.3344,-2.3354,-2.3219,-2.3218,-2.3217,-2.3217,0,0,-2.3069,-2.3095,-2.3107,-2.312,-2.3142,-2.3169,-2.3209,-2.324,-2.3259,-2.328,-2.3314,-2.3359,-2.3342,-2.3359,-2.3355,-2.3383,-2.3445,-2.3361,-2.3362,-2.3376,-2.3518,-2.3532,-2.3544,-2.3436,-2.3438,-2.344,-2.3516,0,-2.3143,-2.3213,-2.3209,-2.3274,-2.3306,-2.3289,-2.3324,-2.3341,-2.3346,-2.3375,-2.338,-2.3412,-2.3387,-2.3397,-2.3425,-2.3432,-2.3474,-2.3426,-2.3467,-2.3469,-2.3462,-2.3557,-2.3572,-2.3643,-2.3526,-2.3527,-2.3529,0,-2.3239,-2.3264,-2.3332,-2.335,-2.3363,-2.3395,-2.3422,-2.345,-2.3469,-2.3471,-2.349,-2.3481,-2.3522,-2.3488,-2.3544,-2.3512,-2.3528,-2.3534,-2.3537,-2.3541,-2.3502,-2.3563,-2.3666,-2.3676,-2.3544,-2.3543,-2.3542,0,-2.3303,-2.3353,-2.3401,-2.3412,-2.3434,-2.3457,-2.3467,-2.3485,-2.3503,-2.3528,-2.354,-2.3569,-2.3585,-2.3608,-2.3607,-2.3582,-2.3663,-2.3629,-2.3666,-2.3666,-2.3684,-2.3683,-2.3791,-2.3695,-2.3695,-2.3694,-2.3694,0,-2.3386,-2.3429,-2.343,-2.3459,-2.3506,-2.3501,-2.3548,-2.3556,-2.3572,-2.3603,-2.3589,-2.3618,-2.3615,-2.3645,-2.3644,-2.3691,-2.3698,-2.37,-2.37,-2.3702,-2.3701,-2.3712,-2.3707,-2.3697,-2.3697,-2.3696,-2.3695,0,-2.3466,-2.3468,-2.3518,-2.3535,-2.354,-2.3574,-2.3588,-2.3616,-2.362,-2.3659,-2.3668,-2.3674,-2.3707,-2.3709,-2.3748,-2.3747,-2.3804,-2.3798,-2.3797,-2.3796,-2.3833,-2.3829,-2.3952,-2.3967,-2.3861,-2.3862,-2.3863,0,-2.3519,-2.3551,-2.3571,-2.359,-2.3602,-2.3633,-2.3652,-2.3649,-2.3669,-2.3694,-2.3719,-2.3752,-2.3777,-2.3832,-2.384,-2.387,-2.3864,-2.3905,-2.3869,-2.387,-2.3865,-2.3863,-2.3867,-2.3912,-2.3913,-2.3914,-2.3915,0,-2.3613,-2.3612,-2.364,-2.3669,-2.3691,-2.3714,-2.3734,-2.3751,-2.375,-2.3774,-2.3808,-2.3828,-2.3868,-2.39,-2.3929,-2.3939,-2.3928,-2.3927,-2.3937,-2.3939,-2.3937,-2.3939,-2.3817,-2.3924,-2.3923,-2.3922,-2.3922,-2.3922,-2.3681,-2.3709,-2.3727,-2.3759,-2.3774,-2.3793,-2.382,-2.3827,-2.3856,-2.3887,-2.3884,-2.3922,-2.3941,-2.3978,-2.3991,-2.4021,-2.4007,-2.4022,-2.4026,-2.4029,-2.4033,-2.3933,-2.4027,-2.4026,-2.4026,-2.4026,-2.4026,0,-2.3775,-2.3785,-2.3814,-2.3843,-2.3868,-2.3854,-2.3876,-2.3898,-2.3932,-2.395,-2.3976,-2.4015,-2.4047,-2.4057,-2.4088,-2.411,-2.4105,-2.4118,-2.4116,-2.4119,-2.4044,-2.4032,-2.4121,-2.4121,-2.4121,-2.4121,-2.4121,-2.4121,-2.3826,-2.3873,-2.3874,-2.3928,-2.3939,-2.3976,-2.3989,-2.4007,-2.4022,-2.4067,-2.4093,-2.4099,-2.4115,-2.4146,-2.4174,-2.4176,-2.4188,-2.4204,-2.4204,-2.4134,-2.4124,-2.4115,-2.4104,-2.4206,-2.4206,-2.4276,-2.4277,-2.4277]},{"header":{"parameterUnit":"m.s-1","parameterCategory":1,"la1":30.2991,"la2":30.254,"lo1":-89.0895,"lo2":-89.0444,"dy":0.0017,"dx":0.0017,"nx":28,"ny":28,"refTime":"2024-06-14T03:00:00:Z","depth":0,"parameterNumber":3,"parameterNumberName":"V-component_of_WINDS"},"data":[0,0,0,0,0,0,0,0,0,0,0,0,0,0,0,0,0,0,0,0,0,0,0,0,0,0,0,0,0,0,0,0,0,0,0,0,0,0,0,0,0,0,0,0,0,0,0,0,0,0,0,0,0,0,0,0,0,0,3.482,3.482,0,3.4857,3.4858,3.4858,3.4821,3.4819,3.4818,3.4817,3.4851,3.4853,3.4855,0,0,0,0,0,0,0,0,0,0,0,0,0,3.4711,3.4713,3.482,3.482,3.4821,3.4857,3.4858,3.4858,3.4821,3.4819,3.4818,3.4816,3.485,3.4853,3.4856,0,0,0,0,0,0,0,0,0,0,0,0,0,3.4754,3.4714,3.482,3.4807,3.4806,3.4857,3.4858,3.4859,3.4821,3.4819,3.4817,3.4815,3.4849,3.4853,3.4856,3.4921,0,0,3.4866,3.4868,0,0,0,0,0,0,0,0,3.4752,3.4758,3.4808,3.4808,3.4807,3.4832,3.4832,3.4879,3.4822,3.4815,3.4816,3.4814,3.4846,3.485,3.4862,3.4923,3.4924,3.4867,3.4869,3.487,3.4871,0,0,0,0,0,0,0,3.4749,3.4757,3.4834,3.4809,3.4808,3.4797,3.4801,3.4841,3.4842,3.4816,3.4813,3.4818,3.4845,3.4858,3.4862,3.4925,3.4867,3.487,3.4872,3.4873,3.504,3.5042,0,0,0,0,0,0,3.4748,3.4754,3.4833,3.4836,3.4774,3.4801,3.4805,3.4826,3.4842,3.4842,3.482,3.4817,3.4854,3.4858,3.4863,3.4939,3.487,3.4873,3.4875,3.5038,3.504,3.5043,0,0,0,0,0,0,3.4746,3.4755,3.4832,3.4794,3.4803,3.4805,3.4829,3.4828,3.4841,3.4845,3.4845,3.4833,3.4852,3.4858,3.4907,3.494,3.4875,3.4878,3.5035,3.5038,3.5042,3.5093,0,0,0,0,0,0,3.4743,3.4755,3.4781,3.4795,3.4805,3.4876,3.4831,3.483,3.4848,3.4843,3.4858,3.4858,3.4851,3.4902,3.491,3.4944,3.4881,3.5032,3.5036,3.5041,3.5088,3.5098,3.5106,0,0,0,0,0,3.4739,3.4793,3.4782,3.4792,3.4838,3.4878,3.4884,3.4876,3.485,3.4875,3.4878,3.4857,3.4936,3.4907,3.4916,3.4951,3.503,3.5035,3.504,3.5084,3.5096,3.5106,0,0,0,0,0,0,3.478,3.4794,3.4783,3.4843,3.486,3.4872,3.4903,3.4889,3.4912,3.4907,3.4894,3.4898,3.4949,3.4955,3.4924,3.5015,3.4978,3.4986,3.5009,3.502,3.5029,3.5025,3.4884,0,0,0,0,0,3.4797,3.483,3.484,3.4892,3.4901,3.4901,3.4918,3.4911,3.4927,3.4934,3.494,3.4956,3.4984,3.5002,3.5028,3.509,3.5092,3.5118,3.5127,3.5134,3.514,3.5172,3.5184,3.5061,3.5061,3.506,0,0,3.483,3.4842,3.4863,3.4901,3.4913,3.4946,3.4907,3.4944,3.4968,3.4939,3.4985,3.4991,3.5007,3.5063,3.5087,3.5069,3.5175,3.5141,3.5147,3.5149,3.5179,3.519,3.5201,3.5064,3.5064,3.5063,0,0,3.4908,3.4921,3.4966,3.4979,3.4999,3.4998,3.5009,3.5024,3.5027,3.5074,3.5052,3.508,3.5129,3.5141,3.5154,3.5237,3.5219,3.5246,3.5292,3.5323,3.5333,3.5341,3.537,3.5381,3.5252,3.5253,3.5253,0,3.4947,3.4997,3.499,3.5029,3.5045,3.5022,3.5066,3.5079,3.5106,3.5117,3.5097,3.5157,3.5167,3.5224,3.5245,3.5256,3.5267,3.5244,3.5332,3.5341,3.5349,3.5376,3.5387,3.5256,3.5255,3.5255,3.5255,0,3.5043,3.5079,3.5112,3.514,3.516,3.5202,3.5199,3.522,3.5211,3.5213,3.526,3.5271,3.5299,3.5312,3.5303,3.5368,3.5356,3.5335,3.5297,3.5364,3.5389,3.5399,3.526,3.5259,3.5258,3.5257,0,0,3.5147,3.5171,3.5183,3.5195,3.5216,3.5242,3.5282,3.531,3.5328,3.5348,3.5379,3.5422,3.5402,3.5417,3.5409,3.5437,3.5501,3.5411,3.5412,3.5427,3.5572,3.5587,3.5599,3.5489,3.5491,3.5493,3.557,0,3.5225,3.5295,3.529,3.5356,3.5388,3.5366,3.5401,3.5416,3.5419,3.5445,3.5447,3.5477,3.545,3.5458,3.5485,3.5487,3.5529,3.5482,3.5517,3.5519,3.5513,3.5613,3.5629,3.5701,3.558,3.5582,3.5583,0,3.5324,3.5349,3.5418,3.5434,3.5447,3.5478,3.5503,3.553,3.5546,3.5546,3.5563,3.555,3.5589,3.5553,3.5605,3.5573,3.5587,3.5591,3.5593,3.5595,3.5554,3.5616,3.5724,3.5735,3.5599,3.5597,3.5596,0,3.5392,3.5442,3.5489,3.5501,3.552,3.5542,3.5551,3.5566,3.5583,3.5605,3.5616,3.5642,3.5656,3.5676,3.567,3.5644,3.5723,3.5686,3.5723,3.5723,3.5739,3.5738,3.585,3.5751,3.5751,3.5751,3.575,0,3.5478,3.5521,3.552,3.5549,3.5597,3.559,3.5636,3.5642,3.5656,3.5685,3.5668,3.5695,3.5687,3.5714,3.571,3.5753,3.5759,3.5759,3.5757,3.576,3.576,3.5768,3.5763,3.5753,3.5753,3.5752,3.5752,0,3.556,3.5562,3.5612,3.5627,3.5632,3.5666,3.5678,3.5705,3.5706,3.5743,3.5752,3.5754,3.5784,3.5781,3.5815,3.5812,3.5866,3.5859,3.5861,3.5858,3.5895,3.5891,3.6015,3.603,3.5922,3.5923,3.5924,0,3.5615,3.5648,3.5667,3.5686,3.5696,3.5727,3.5745,3.574,3.5759,3.5781,3.5805,3.5834,3.5857,3.5907,3.591,3.5936,3.5928,3.597,3.5932,3.5934,3.5928,3.5925,3.5928,3.5977,3.5978,3.5979,3.598,0,3.5711,3.571,3.5738,3.5766,3.5788,3.5809,3.5828,3.5845,3.5841,3.5863,3.5895,3.5913,3.5948,3.5977,3.6002,3.6009,3.5994,3.5993,3.6002,3.6004,3.6004,3.6004,3.588,3.5989,3.5988,3.5988,3.5987,3.5987,3.5781,3.5809,3.5826,3.5857,3.5872,3.589,3.5916,3.5922,3.5948,3.5978,3.5972,3.6008,3.6023,3.6055,3.6065,3.6092,3.6076,3.6091,3.6094,3.6097,3.6101,3.6001,3.6096,3.6096,3.6096,3.6096,3.6095,0,3.5875,3.5886,3.5914,3.5942,3.5967,3.5952,3.5973,3.5993,3.6025,3.6042,3.6065,3.6101,3.6129,3.6136,3.6162,3.6182,3.6176,3.6189,3.6187,3.6189,3.6114,3.6102,3.6194,3.6194,3.6194,3.6194,3.6194,3.6194,3.5927,3.5973,3.5975,3.6028,3.6037,3.6073,3.6086,3.6103,3.6116,3.6157,3.6181,3.6186,3.6198,3.6225,3.625,3.6251,3.6261,3.6277,3.6275,3.6204,3.6194,3.6185,3.6174,3.628,3.628,3.6348,3.6349,3.6349]}]]